Flag for Germany Weather past 2 weeks in Neubrandenburg, Mecklenburg-Western Pomerania, Germany

Now
78 °F

Scattered clouds.


Feels Like: 79 °F
Forecast: 61 / 82 °F
Wind: 3 mph from Southeast

Location: Greifswald

Current Time: Aug 1, 2014 at 1:13:46 PM

Latest Report: Aug 1, 2014 at 1:00 PM


Visibility: 14 mi

Pressure: 29.97 "Hg

Humidity: 43%

Dew point: 54 °F

Location of NeubrandenburgLocation

Historic Weather in Neubrandenburg — Graph

°F

Neubrandenburg temperature yesterday

Maximum temperature yesterday: 75 °F (at 4:00 PM)
Minimum temperature yesterday: 59 °F (at 6:00 AM)
Average temperature yesterday: 68 °F

Past Weeks' High & Low Weather Summary

 TemperatureHumidityPressure
High79 °F (Jul 27, 11:00 AM)99% (Jul 19, 6:00 AM)30.21 "Hg (Jul 19, 6:00 AM)
Low56 °F (Aug 1, 6:00 AM)44% (Jul 31, 4:00 PM)29.71 "Hg (Jul 30, 4:00 AM)
Average69 °F81%29.99 "Hg
* Reported Jul 17 12:00 Noon — Aug 1 12:00 Noon, Neubrandenburg, Weather by CustomWeather, © 2014

Note: Actual official high and low records may vary slightly from our data, if they occured in-between our weather recording intervals... More about our weather records

Advertising

Neubrandenburg weather history for previous 24 hours

 ConditionsComfort  
Time TempWeatherWind HumidityBarometerVisibility
12:00 PM
Aug 1
77 °FScattered clouds.3 mph44%29.98 "Hg15 mi
11:00 AM75 °FScattered clouds.2 mph52%29.98 "Hg16 mi
10:00 AM73 °FScattered clouds.3 mph57%29.98 "Hg12 mi
9:00 AM71 °FPassing clouds.2 mph66%29.98 "Hg12 mi
8:00 AM67 °FScattered clouds.No wind76%29.98 "Hg10 mi
7:00 AM59 °FPassing clouds.1 mph97%29.97 "Hg9 mi
6:00 AM56 °FSunny.1 mph98%29.97 "Hg6 mi
4:00 AM57 °FPassing clouds.1 mph97%29.98 "Hg6 mi
3:00 AM58 °FClear.1 mph96%29.98 "Hg6 mi
2:00 AM58 °FClear.1 mph95%29.98 "Hg7 mi
1:00 AM60 °FClear.1 mph91%29.98 "Hg9 mi
12:00 AM62 °FPassing clouds.1 mph88%29.97 "Hg12 mi
11:00 PM
Jul 31
62 °FClear.1 mph87%29.97 "Hg12 mi
10:00 PM63 °FClear.1 mph78%29.96 "Hg16 mi
9:00 PM68 °FPassing clouds.1 mph69%29.94 "Hg19 mi
8:00 PM72 °FPassing clouds.2 mph54%29.94 "Hg19 mi
7:00 PM74 °FPassing clouds.6 mph47%29.93 "Hg19 mi
6:00 PM73 °FPartly sunny.3 mph59%29.93 "Hg17 mi
5:00 PM74 °FScattered clouds.5 mph51%29.93 "Hg19 mi
4:00 PM75 °FScattered clouds.6 mph44%29.93 "Hg19 mi
3:00 PM75 °FScattered clouds.5 mph47%29.93 "Hg16 mi
2:00 PM74 °FScattered clouds.5 mph53%29.93 "Hg22 mi
1:00 PM73 °FScattered clouds.6 mph52%29.93 "Hg13 mi
Weather by CustomWeather, © 2014

See weather overviewHow to use our weather pages